| time (UTC) | temp F | wind direction | speed knots | gust knots | rain 1hr in | rain 24hr in | rain mn in | humidity % | barometer mb |
| 20260509120740 | 41 | 306 | 4.3 | 7.8 | 0.00 | 0.00 | 0.00 | 81 | 1001.9 |
| 20260509120240 | 41 | 294 | 5.2 | 7.8 | 0.00 | 0.00 | 0.00 | 81 | 1001.9 |
| 20260509110740 | 41 | 279 | 5.2 | 6.1 | 0.00 | 0.00 | 0.00 | 79 | 1002.5 |
| 20260509100740 | 41 | 274 | 5.2 | 7.8 | 0.00 | 0.00 | 0.00 | 80 | 1002.7 |
| 20260509100239 | 41 | 288 | 6.1 | 7.8 | 0.00 | 0.00 | 0.00 | 80 | 1002.7 |
| 20260509090739 | 41 | 284 | 5.2 | 7.0 | 0.00 | 0.00 | 0.00 | 81 | 1003.1 |
| 20260509090239 | 41 | 289 | 4.3 | 7.0 | 0.00 | 0.00 | 0.00 | 81 | 1003.0 |
| 20260509080739 | 42 | 136 | 4.3 | 7.0 | 0.00 | 0.00 | 0.00 | 81 | 1003.3 |
| 20260509080241 | 42 | 192 | 4.3 | 7.8 | 0.00 | 0.00 | 0.00 | 81 | 1003.3 |
| 20260509060809 | 43 | 267 | 4.3 | 7.8 | 0.00 | 0.00 | 0.00 | 79 | 1003.9 |
| 20260509060308 | 43 | 277 | 3.5 | 7.8 | 0.00 | 0.00 | 0.00 | 78 | 1003.8 |
| 20260509050808 | 44 | 140 | 2.6 | 6.1 | 0.00 | 0.00 | 0.00 | 76 | 1003.9 |
| 20260509050309 | 44 | 139 | 1.7 | 6.1 | 0.00 | 0.00 | 0.00 | 76 | 1003.9 |
| 20260509040808 | 45 | 261 | 2.6 | 6.1 | 0.00 | 0.00 | 0.00 | 73 | 1004.2 |
| 20260509040308 | 45 | 187 | 1.7 | 7.0 | 0.00 | 0.00 | 0.00 | 72 | 1004.3 |
| 20260509030808 | 47 | 320 | 1.7 | 5.2 | 0.00 | 0.00 | 0.00 | 67 | 1004.1 |
| 20260509030308 | 47 | 295 | 1.7 | 7.0 | 0.00 | 0.00 | 0.00 | 67 | 1004.1 |
| 20260509020808 | 49 | 305 | 4.3 | 6.1 | 0.00 | 0.00 | 0.00 | 60 | 1004.0 |
| 20260509020309 | 50 | 324 | 2.6 | 7.8 | 0.00 | 0.00 | 0.00 | 59 | 1004.0 |
| 20260509010808 | 52 | 88 | 1.7 | 2.6 | 0.00 | 0.00 | 0.00 | 54 | 1004.0 |
| 20260509010307 | 52 | 45 | 1.7 | 6.1 | 0.00 | 0.00 | 0.00 | 54 | 1003.9 |
| 20260509000310 | 53 | 40 | 1.7 | 5.2 | 0.00 | 0.00 | 0.00 | 51 | 1004.0 |
| 20260508230808 | 54 | 53 | 1.7 | 4.3 | 0.00 | 0.00 | 0.00 | 48 | 1004.3 |
| 20260508230307 | 54 | 92 | 1.7 | 6.1 | 0.00 | 0.00 | 0.00 | 48 | 1004.3 |
| 20260508220808 | 54 | 95 | 0.9 | 2.6 | 0.00 | 0.00 | 0.00 | 48 | 1004.8 |
| 20260508220308 | 54 | 284 | 0.9 | 7.0 | 0.00 | 0.00 | 0.00 | 47 | 1004.9 |
| 20260508210808 | 51 | 29 | 2.6 | 6.1 | 0.00 | 0.00 | 0.00 | 50 | 1005.6 |
| 20260508210308 | 51 | 300 | 2.6 | 8.7 | 0.00 | 0.00 | 0.00 | 49 | 1005.6 |
| 20260508200809 | 50 | 276 | 4.3 | 7.0 | 0.00 | 0.00 | 0.00 | 50 | 1005.9 |
| 20260508200309 | 49 | 313 | 5.2 | 7.8 | 0.00 | 0.00 | 0.00 | 49 | 1006.0 |
| 20260508190810 | 49 | 301 | 4.3 | 7.8 | 0.00 | 0.00 | 0.00 | 50 | 1006.2 |
| 20260508190309 | 49 | 320 | 4.3 | 7.8 | 0.00 | 0.00 | 0.00 | 50 | 1006.2 |
| 20260508180308 | 46 | 256 | 1.7 | 7.0 | 0.00 | 0.00 | 0.00 | 54 | 1007.0 |
| 20260508170807 | 43 | 291 | 2.6 | 6.1 | 0.00 | 0.00 | 0.00 | 58 | 1007.8 |
| 20260508170308 | 43 | 284 | 2.6 | 7.0 | 0.00 | 0.00 | 0.00 | 58 | 1008.0 |
| 20260508160807 | 34 | 285 | 2.6 | 4.3 | 0.00 | 0.00 | 0.00 | 74 | 1009.0 |
| 20260508160308 | 34 | 278 | 2.6 | 4.3 | 0.00 | 0.00 | 0.00 | 76 | 1009.0 |
| 20260508150308 | 29 | 69 | 0.9 | 2.6 | 0.00 | 0.00 | 0.00 | 85 | 1009.9 |
| 20260508140309 | 25 | 283 | 0.9 | 1.7 | 0.00 | 0.00 | 0.00 | 91 | 1010.4 |
| 20260508130809 | 24 | 281 | 0.0 | 1.7 | 0.00 | 0.00 | 0.00 | 91 | 1011.0 |
| 20260508130307 | 24 | 280 | 0.0 | 2.6 | 0.00 | 0.00 | 0.00 | 92 | 1011.0 |